Regional Weather Roundup
Issued by NWS

Home | Current Version | Previous Version | Text Only | Print | Product List | Glossary Off
Versions: 1 2 3 4 5 6 7 8 9 10 11 12 13 14 15 16 17 18 19 20 21 22 23 24 25 26 27 28 29 30 31 32 33 34 35 36 37 38 39 40 41 42 43 44 45 46 47 48 49 50

000
ASUS43 KFSD 250910
RWRSD

WEATHER ROUNDUP FOR SOUTH DAKOTA
NATIONAL WEATHER SERVICE SIOUX FALLS SD
300 AM CST THU DEC 25 2014

NOTE: "FAIR" INDICATES FEW OR NO CLOUDS BELOW 12,000 FEET WITH NO
SIGNIFICANT WEATHER AND/OR OBSTRUCTIONS TO VISIBILITY.


SDZ001>005-009-010-012>017-251000-
NORTHWEST AND NORTH CENTRAL SOUTH DAKOTA

CITY           SKY/WX    TMP DP  RH WIND       PRES   REMARKS
BUFFALO          N/A     31  28  89 N10       29.47R WCI  22
FAITH            N/A     32  30  92 N14       29.50R WCI  22
MOBRIDGE       CLOUDY    30  27  88 N5        29.50R WCI  25
$$

SDZ012>016-024>037-041>051-057-063-072>074-251000-
SOUTHWEST AND SOUTH CENTRAL SOUTH DAKOTA

CITY           SKY/WX    TMP DP  RH WIND       PRES   REMARKS
RAPID CTY ARPT LGT SNOW  31  29  92 N10       29.49R FOG     WCI  22
PIERRE         CLOUDY    29  25  85 N7        29.49R WCI  22
CUSTER         CLOUDY    31  24  75 NE3       29.41R
ELLSWORTH AFB  FLURRIES  32  30  93 N10       29.49  WCI  24
PHILIP         CLOUDY    33  25  72 N9        29.48R WCI  25
PINE RIDGE     CLOUDY    31  24  75 NW5       29.46R WCI  26
SPEARFISH      FLURRIES  28  28 100 NE3       29.49R
WINNER         FAIR      35  26  69 SW6       29.47R
$$

SDZ004>011-016>023-039-040-251000-
NORTHEAST SOUTH DAKOTA

CITY           SKY/WX    TMP DP  RH WIND       PRES   REMARKS
ABERDEEN       CLOUDY    29  25  85 CALM      29.53R
WATERTOWN      CLOUDY    27  24  89 S6        29.51R WCI  20
SISSETON         N/A     31  26  82 SW6       29.53R WCI  25
$$

SDZ017-020-022-023-036>040-048>070-251000-
SOUTHEAST SOUTH DAKOTA

CITY           SKY/WX    TMP DP  RH WIND       PRES   REMARKS
SIOUX FALLS    PTCLDY    27  24  89 S8        29.54F WCI  19
HURON          CLOUDY    25  23  92 SE5       29.52S WCI  19
CHAMBERLAIN    CLOUDY    26  23  88 N3        29.49R
MITCHELL       MOCLDY    26  24  92 CALM      29.54R
YANKTON        PTCLDY    25  21  86 E7        29.55R WCI  17
$$

ABBREVIATIONS USED IN REMARKS
   TC - TEMPERATURE IN CELSIUS
  WCI - WIND CHILL INDEX
   HX - HEAT INDEX
  VSB - VISIBILITY




USA.gov is the U.S. government's official web portal to all federal, state and local government web resources and services.